Year,Month,Day,Hour,Minute,Value (Times are PST for temperature in C)
2016,08,24,00,00,13.80
2016,08,24,00,01,13.80
2016,08,24,00,02,13.80
2016,08,24,00,03,13.80
2016,08,24,00,04,13.80
2016,08,24,00,05,13.80
2016,08,24,00,06,13.70
2016,08,24,00,07,13.70
2016,08,24,00,08,13.70
2016,08,24,00,09,13.70
2016,08,24,00,10,13.70
2016,08,24,00,11,13.70
2016,08,24,00,12,13.70
2016,08,24,00,13,13.70
2016,08,24,00,14,13.60
2016,08,24,00,15,13.60
2016,08,24,00,16,13.60
2016,08,24,00,17,13.60
2016,08,24,00,18,13.60
2016,08,24,00,19,13.60
2016,08,24,00,20,13.60
2016,08,24,00,21,13.50
2016,08,24,00,22,13.50
2016,08,24,00,23,13.50
2016,08,24,00,24,13.50
2016,08,24,00,25,13.40
2016,08,24,00,26,13.40
2016,08,24,00,27,13.40
2016,08,24,00,28,13.40
2016,08,24,00,29,13.40
2016,08,24,00,30,13.40
2016,08,24,00,31,13.30
2016,08,24,00,32,13.30
2016,08,24,00,33,13.30
2016,08,24,00,34,13.30
2016,08,24,00,35,13.30
2016,08,24,00,36,13.20
2016,08,24,00,37,13.20
2016,08,24,00,38,13.20
2016,08,24,00,39,13.20
2016,08,24,00,40,13.20
2016,08,24,00,41,13.10
2016,08,24,00,42,13.10
2016,08,24,00,43,13.10
2016,08,24,00,44,13.10
2016,08,24,00,45,13.10
2016,08,24,00,46,13.00
2016,08,24,00,47,13.00
2016,08,24,00,48,13.00
2016,08,24,00,49,13.00
2016,08,24,00,50,12.90
2016,08,24,00,51,12.90
2016,08,24,00,52,12.90
2016,08,24,00,53,12.90
2016,08,24,00,54,12.90
2016,08,24,00,55,12.90
2016,08,24,00,56,12.90
2016,08,24,00,57,12.90
2016,08,24,00,58,12.90
2016,08,24,00,59,12.90
2016,08,24,01,00,12.90
2016,08,24,01,01,12.90
2016,08,24,01,02,12.90
2016,08,24,01,03,12.90
2016,08,24,01,04,12.90
2016,08,24,01,05,12.90
2016,08,24,01,06,12.90
2016,08,24,01,07,12.80
2016,08,24,01,08,12.80
2016,08,24,01,09,12.80
2016,08,24,01,10,12.80
2016,08,24,01,11,12.80
2016,08,24,01,12,12.80
2016,08,24,01,13,12.70
2016,08,24,01,14,12.70
2016,08,24,01,15,12.70
2016,08,24,01,16,12.70
2016,08,24,01,17,12.70
2016,08,24,01,18,12.70
2016,08,24,01,19,12.70
2016,08,24,01,20,12.70
2016,08,24,01,21,12.70
2016,08,24,01,22,12.70
2016,08,24,01,23,12.70
2016,08,24,01,24,12.70
2016,08,24,01,25,12.70
2016,08,24,01,26,12.60
2016,08,24,01,27,12.60
2016,08,24,01,28,12.60
2016,08,24,01,29,12.60
2016,08,24,01,30,12.60
2016,08,24,01,31,12.60
2016,08,24,01,32,12.60
2016,08,24,01,33,12.60
2016,08,24,01,34,12.50
2016,08,24,01,35,12.50
2016,08,24,01,36,12.50
2016,08,24,01,37,12.50
2016,08,24,01,38,12.50
2016,08,24,01,39,12.40
2016,08,24,01,40,12.40
2016,08,24,01,41,12.40
2016,08,24,01,42,12.40
2016,08,24,01,43,12.40
2016,08,24,01,44,12.40
2016,08,24,01,45,12.40
2016,08,24,01,46,12.40
2016,08,24,01,47,12.40
2016,08,24,01,48,12.40
2016,08,24,01,49,12.30
2016,08,24,01,50,12.30
2016,08,24,01,51,12.30
2016,08,24,01,52,12.30
2016,08,24,01,53,12.30
2016,08,24,01,54,12.30
2016,08,24,01,55,12.30
2016,08,24,01,56,12.30
2016,08,24,01,57,12.30
2016,08,24,01,58,12.30
2016,08,24,01,59,12.30
2016,08,24,02,00,12.30
2016,08,24,02,01,12.30
2016,08,24,02,02,12.20
2016,08,24,02,03,12.20
2016,08,24,02,04,12.20
2016,08,24,02,05,12.20
2016,08,24,02,06,12.20
2016,08,24,02,07,12.20
2016,08,24,02,08,12.10
2016,08,24,02,09,12.10
2016,08,24,02,10,12.10
2016,08,24,02,11,12.00
2016,08,24,02,12,12.00
2016,08,24,02,13,12.00
2016,08,24,02,14,11.90
2016,08,24,02,15,11.90
2016,08,24,02,16,11.90
2016,08,24,02,17,11.90
2016,08,24,02,18,11.90
2016,08,24,02,19,11.90
2016,08,24,02,20,11.90
2016,08,24,02,21,11.90
2016,08,24,02,22,11.90
2016,08,24,02,23,11.90
2016,08,24,02,24,11.90
2016,08,24,02,25,11.90
2016,08,24,02,26,11.90
2016,08,24,02,27,11.80
2016,08,24,02,28,11.80
2016,08,24,02,29,11.80
2016,08,24,02,30,11.80
2016,08,24,02,31,11.80
2016,08,24,02,32,11.80
2016,08,24,02,33,11.80
2016,08,24,02,34,11.80
2016,08,24,02,35,11.80
2016,08,24,02,36,11.80
2016,08,24,02,37,11.70
2016,08,24,02,38,11.70
2016,08,24,02,39,11.70
2016,08,24,02,40,11.70
2016,08,24,02,41,11.70
2016,08,24,02,42,11.70
2016,08,24,02,43,11.70
2016,08,24,02,44,11.70
2016,08,24,02,45,11.70
2016,08,24,02,46,11.70
2016,08,24,02,47,11.70
2016,08,24,02,48,11.70
2016,08,24,02,49,11.70
2016,08,24,02,50,11.70
2016,08,24,02,51,11.70
2016,08,24,02,52,11.70
2016,08,24,02,53,11.70
2016,08,24,02,54,11.70
2016,08,24,02,55,11.70
2016,08,24,02,56,11.70
2016,08,24,02,57,11.60
2016,08,24,02,58,11.60
2016,08,24,02,59,11.60
2016,08,24,03,00,11.60
2016,08,24,03,01,11.60
2016,08,24,03,02,11.60
2016,08,24,03,03,11.50
2016,08,24,03,04,11.50
2016,08,24,03,05,11.50
2016,08,24,03,06,11.50
2016,08,24,03,07,11.50
2016,08,24,03,08,11.50
2016,08,24,03,09,11.50
2016,08,24,03,10,11.50
2016,08,24,03,11,11.50
2016,08,24,03,12,11.50
2016,08,24,03,13,11.50
2016,08,24,03,14,11.50
2016,08,24,03,15,11.40
2016,08,24,03,16,11.50
2016,08,24,03,17,11.40
2016,08,24,03,18,11.40
2016,08,24,03,19,11.40
2016,08,24,03,20,11.40
2016,08,24,03,21,11.40
2016,08,24,03,22,11.40
2016,08,24,03,23,11.40
2016,08,24,03,24,11.30
2016,08,24,03,25,11.30
2016,08,24,03,26,11.30
2016,08,24,03,27,11.30
2016,08,24,03,28,11.30
2016,08,24,03,29,11.20
2016,08,24,03,30,11.20
2016,08,24,03,31,11.20
2016,08,24,03,32,11.20
2016,08,24,03,33,11.20
2016,08,24,03,34,11.20
2016,08,24,03,35,11.20
2016,08,24,03,36,11.10
2016,08,24,03,37,11.10
2016,08,24,03,38,11.10
2016,08,24,03,39,11.10
2016,08,24,03,40,11.10
2016,08,24,03,41,11.10
2016,08,24,03,42,11.10
2016,08,24,03,43,11.10
2016,08,24,03,44,11.10
2016,08,24,03,45,11.10
2016,08,24,03,46,11.10
2016,08,24,03,47,11.10
2016,08,24,03,48,11.10
2016,08,24,03,49,11.10
2016,08,24,03,50,11.10
2016,08,24,03,51,11.10
2016,08,24,03,52,11.10
2016,08,24,03,53,11.10
2016,08,24,03,54,11.10
2016,08,24,03,55,11.10
2016,08,24,03,56,11.10
2016,08,24,03,57,11.10
2016,08,24,03,58,11.10
2016,08,24,03,59,11.10
2016,08,24,04,00,11.10
2016,08,24,04,01,11.10
2016,08,24,04,02,11.10
2016,08,24,04,03,11.10
2016,08,24,04,04,11.10
2016,08,24,04,05,11.10
2016,08,24,04,06,11.10
2016,08,24,04,07,11.00
2016,08,24,04,08,11.00
2016,08,24,04,09,11.00
2016,08,24,04,10,11.00
2016,08,24,04,11,11.00
2016,08,24,04,12,11.00
2016,08,24,04,13,11.00
2016,08,24,04,14,11.00
2016,08,24,04,15,11.00
2016,08,24,04,16,10.90
2016,08,24,04,17,10.90
2016,08,24,04,18,10.90
2016,08,24,04,19,11.00
2016,08,24,04,20,11.00
2016,08,24,04,21,11.00
2016,08,24,04,22,11.00
2016,08,24,04,23,11.00
2016,08,24,04,24,11.00
2016,08,24,04,25,11.00
2016,08,24,04,26,11.00
2016,08,24,04,27,11.00
2016,08,24,04,28,11.00
2016,08,24,04,29,11.00
2016,08,24,04,30,11.00
2016,08,24,04,31,11.00
2016,08,24,04,32,11.00
2016,08,24,04,33,10.90
2016,08,24,04,34,10.90
2016,08,24,04,35,10.90
2016,08,24,04,36,10.90
2016,08,24,04,37,10.90
2016,08,24,04,38,10.90
2016,08,24,04,39,10.90
2016,08,24,04,40,10.90
2016,08,24,04,41,10.80
2016,08,24,04,42,10.80
2016,08,24,04,43,10.80
2016,08,24,04,44,10.80
2016,08,24,04,45,10.80
2016,08,24,04,46,10.80
2016,08,24,04,47,10.80
2016,08,24,04,48,10.80
2016,08,24,04,49,10.80
2016,08,24,04,50,10.80
2016,08,24,04,51,10.80
2016,08,24,04,52,10.80
2016,08,24,04,53,10.80
2016,08,24,04,54,10.80
2016,08,24,04,55,10.80
2016,08,24,04,56,10.80
2016,08,24,04,57,10.80
2016,08,24,04,58,10.80
2016,08,24,04,59,10.80
2016,08,24,05,00,10.80
2016,08,24,05,01,10.80
2016,08,24,05,02,10.80
2016,08,24,05,03,10.80
2016,08,24,05,04,10.80
2016,08,24,05,05,10.80
2016,08,24,05,06,10.70
2016,08,24,05,07,10.70
2016,08,24,05,08,10.70
2016,08,24,05,09,10.70
2016,08,24,05,10,10.70
2016,08,24,05,11,10.70
2016,08,24,05,12,10.70
2016,08,24,05,13,10.70
2016,08,24,05,14,10.60
2016,08,24,05,15,10.60
2016,08,24,05,16,10.60
2016,08,24,05,17,10.60
2016,08,24,05,18,10.60
2016,08,24,05,19,10.60
2016,08,24,05,20,10.60
2016,08,24,05,21,10.60
2016,08,24,05,22,10.60
2016,08,24,05,23,10.60
2016,08,24,05,24,10.60
2016,08,24,05,25,10.60
2016,08,24,05,26,10.60
2016,08,24,05,27,10.60
2016,08,24,05,28,10.60
2016,08,24,05,29,10.60
2016,08,24,05,30,10.60
2016,08,24,05,31,10.60
2016,08,24,05,32,10.60
2016,08,24,05,33,10.60
2016,08,24,05,34,10.60
2016,08,24,05,35,10.60
2016,08,24,05,36,10.60
2016,08,24,05,37,10.60
2016,08,24,05,38,10.60
2016,08,24,05,39,10.60
2016,08,24,05,40,10.60
2016,08,24,05,41,10.50
2016,08,24,05,42,10.50
2016,08,24,05,43,10.50
2016,08,24,05,44,10.50
2016,08,24,05,45,10.50
2016,08,24,05,46,10.50
2016,08,24,05,47,10.50
2016,08,24,05,48,10.50
2016,08,24,05,49,10.50
2016,08,24,05,50,10.50
2016,08,24,05,51,10.50
2016,08,24,05,52,10.50
2016,08,24,05,53,10.60
2016,08,24,05,54,10.60
2016,08,24,05,55,10.60
2016,08,24,05,56,10.60
2016,08,24,05,57,10.60
2016,08,24,05,58,10.60
2016,08,24,05,59,10.60
2016,08,24,06,00,10.60
2016,08,24,06,01,10.50
2016,08,24,06,02,10.50
2016,08,24,06,03,10.50
2016,08,24,06,04,10.60
2016,08,24,06,05,10.60
2016,08,24,06,06,10.60
2016,08,24,06,07,10.60
2016,08,24,06,08,10.60
2016,08,24,06,09,10.60
2016,08,24,06,10,10.50
2016,08,24,06,11,10.50
2016,08,24,06,12,10.50
2016,08,24,06,13,10.50
2016,08,24,06,14,10.50
2016,08,24,06,15,10.50
2016,08,24,06,16,10.50
2016,08,24,06,17,10.50
2016,08,24,06,18,10.50
2016,08,24,06,19,10.50
2016,08,24,06,20,10.50
2016,08,24,06,21,10.50
2016,08,24,06,22,10.50
2016,08,24,06,23,10.50
2016,08,24,06,24,10.50
2016,08,24,06,25,10.50
2016,08,24,06,26,10.50
2016,08,24,06,27,10.50
2016,08,24,06,28,10.50
2016,08,24,06,29,10.50
2016,08,24,06,30,10.50
2016,08,24,06,31,10.40
2016,08,24,06,32,10.40
2016,08,24,06,33,10.40
2016,08,24,06,34,10.40
2016,08,24,06,35,10.40
2016,08,24,06,36,10.40
2016,08,24,06,37,10.40
2016,08,24,06,38,10.40
2016,08,24,06,39,10.40
2016,08,24,06,40,10.30
2016,08,24,06,41,10.30
2016,08,24,06,42,10.30
2016,08,24,06,43,10.30
2016,08,24,06,44,10.30
2016,08,24,06,45,10.30
2016,08,24,06,46,10.30
2016,08,24,06,47,10.20
2016,08,24,06,48,10.20
2016,08,24,06,49,10.20
2016,08,24,06,50,10.20
2016,08,24,06,51,10.20
2016,08,24,06,52,10.30
2016,08,24,06,53,10.30
2016,08,24,06,54,10.30
2016,08,24,06,55,10.30
2016,08,24,06,56,10.30
2016,08,24,06,57,10.30
2016,08,24,06,58,10.30
2016,08,24,06,59,10.30
2016,08,24,07,00,10.30
2016,08,24,07,01,10.30
2016,08,24,07,02,10.30
2016,08,24,07,03,10.30
2016,08,24,07,04,10.30
2016,08,24,07,05,10.30
2016,08,24,07,06,10.30
2016,08,24,07,07,10.30
2016,08,24,07,08,10.30
2016,08,24,07,09,10.30
2016,08,24,07,10,10.30
2016,08,24,07,11,10.40
2016,08,24,07,12,10.40
2016,08,24,07,13,10.40
2016,08,24,07,14,10.50
2016,08,24,07,15,10.50
2016,08,24,07,16,10.50
2016,08,24,07,17,10.60
2016,08,24,07,18,10.60
2016,08,24,07,19,10.60
2016,08,24,07,20,10.60
2016,08,24,07,21,10.60
2016,08,24,07,22,10.60
2016,08,24,07,23,10.60
2016,08,24,07,24,10.60
2016,08,24,07,25,10.60
2016,08,24,07,26,10.60
2016,08,24,07,27,10.60
2016,08,24,07,28,10.60
2016,08,24,07,29,10.60
2016,08,24,07,30,10.60
2016,08,24,07,31,10.60
2016,08,24,07,32,10.70
2016,08,24,07,33,10.70
2016,08,24,07,34,10.70
2016,08,24,07,35,10.70
2016,08,24,07,36,10.70
2016,08,24,07,37,10.70
2016,08,24,07,38,10.80
2016,08,24,07,39,10.80
2016,08,24,07,40,10.80
2016,08,24,07,41,10.80
2016,08,24,07,42,10.90
2016,08,24,07,43,10.90
2016,08,24,07,44,11.00
2016,08,24,07,45,11.10
2016,08,24,07,46,11.20
2016,08,24,07,47,11.20
2016,08,24,07,48,11.30
2016,08,24,07,49,11.40
2016,08,24,07,50,11.40
2016,08,24,07,51,11.50
2016,08,24,07,52,11.60
2016,08,24,07,53,11.60
2016,08,24,07,54,11.70
2016,08,24,07,55,11.70
2016,08,24,07,56,11.70
2016,08,24,07,57,11.80
2016,08,24,07,58,11.80
2016,08,24,07,59,11.80
2016,08,24,08,00,11.90
2016,08,24,08,01,11.90
2016,08,24,08,02,12.00
2016,08,24,08,03,12.10
2016,08,24,08,04,12.10
2016,08,24,08,05,12.20
2016,08,24,08,06,12.30
2016,08,24,08,07,12.40
2016,08,24,08,08,12.50
2016,08,24,08,09,12.60
2016,08,24,08,10,12.70
2016,08,24,08,11,12.90
2016,08,24,08,12,13.00
2016,08,24,08,13,13.10
2016,08,24,08,14,13.30
2016,08,24,08,15,13.40
2016,08,24,08,16,13.50
2016,08,24,08,17,13.70
2016,08,24,08,18,13.80
2016,08,24,08,19,13.90
2016,08,24,08,20,14.10
2016,08,24,08,21,14.20
2016,08,24,08,22,14.30
2016,08,24,08,23,14.40
2016,08,24,08,24,14.60
2016,08,24,08,25,14.70
2016,08,24,08,26,14.80
2016,08,24,08,27,14.90
2016,08,24,08,28,15.00
2016,08,24,08,29,15.20
2016,08,24,08,30,15.30
2016,08,24,08,31,15.40
2016,08,24,08,32,15.50
2016,08,24,08,33,15.60
2016,08,24,08,34,15.70
2016,08,24,08,35,15.80
2016,08,24,08,36,16.00
2016,08,24,08,37,16.10
2016,08,24,08,38,16.20
2016,08,24,08,39,16.40
2016,08,24,08,40,16.50
2016,08,24,08,41,16.60
2016,08,24,08,42,16.70
2016,08,24,08,43,16.80
2016,08,24,08,44,16.80
2016,08,24,08,45,16.80
2016,08,24,08,46,16.80
2016,08,24,08,47,16.90
2016,08,24,08,48,17.10
2016,08,24,08,49,17.30
2016,08,24,08,50,17.60
2016,08,24,08,51,17.70
2016,08,24,08,52,17.90
2016,08,24,08,53,18.10
2016,08,24,08,54,18.30
2016,08,24,08,55,18.50
2016,08,24,08,56,18.60
2016,08,24,08,57,18.90
2016,08,24,08,58,19.00
2016,08,24,08,59,19.30
2016,08,24,09,00,19.50
2016,08,24,09,01,19.70
2016,08,24,09,02,19.90
2016,08,24,09,03,20.00
2016,08,24,09,04,20.20
2016,08,24,09,05,20.30
2016,08,24,09,06,20.40
2016,08,24,09,07,20.60
2016,08,24,09,08,20.70
2016,08,24,09,09,20.80
2016,08,24,09,10,21.00
2016,08,24,09,11,21.20
2016,08,24,09,12,21.30
2016,08,24,09,13,21.50
2016,08,24,09,14,21.60
2016,08,24,09,15,21.70
2016,08,24,09,16,21.90
2016,08,24,09,17,22.00
2016,08,24,09,18,22.10
2016,08,24,09,19,22.20
2016,08,24,09,20,22.30
2016,08,24,09,21,22.40
2016,08,24,09,22,22.50
2016,08,24,09,23,22.50
2016,08,24,09,24,22.50
2016,08,24,09,25,22.50
2016,08,24,09,26,22.40
2016,08,24,09,27,22.40
2016,08,24,09,28,22.40
2016,08,24,09,29,22.30
2016,08,24,09,30,22.40
2016,08,24,09,31,22.40
2016,08,24,09,32,22.40
2016,08,24,09,33,22.50
2016,08,24,09,34,22.50
2016,08,24,09,35,22.50
2016,08,24,09,36,22.60
2016,08,24,09,37,22.60
2016,08,24,09,38,22.60
2016,08,24,09,39,22.60
2016,08,24,09,40,22.60
2016,08,24,09,41,22.70
2016,08,24,09,42,22.70
2016,08,24,09,43,22.70
2016,08,24,09,44,22.70
2016,08,24,09,45,22.70
2016,08,24,09,46,22.70
2016,08,24,09,47,22.70
2016,08,24,09,48,22.70
2016,08,24,09,49,22.80
2016,08,24,09,50,22.70
2016,08,24,09,51,22.80
2016,08,24,09,52,22.80
2016,08,24,09,53,22.90
2016,08,24,09,54,22.90
2016,08,24,09,55,23.00
2016,08,24,09,56,23.10
2016,08,24,09,57,23.10
2016,08,24,09,58,23.20
2016,08,24,09,59,23.30
2016,08,24,10,00,23.30
2016,08,24,10,01,23.40
2016,08,24,10,02,23.50
2016,08,24,10,03,23.50
2016,08,24,10,04,23.60
2016,08,24,10,05,23.60
2016,08,24,10,06,23.60
2016,08,24,10,07,23.70
2016,08,24,10,08,23.80
2016,08,24,10,09,23.90
2016,08,24,10,10,24.00
2016,08,24,10,11,24.00
2016,08,24,10,12,24.00
2016,08,24,10,13,24.10
2016,08,24,10,14,24.10
2016,08,24,10,15,24.20
2016,08,24,10,16,24.20
2016,08,24,10,17,24.20
2016,08,24,10,18,24.20
2016,08,24,10,19,24.20
2016,08,24,10,20,24.20
2016,08,24,10,21,24.20
2016,08,24,10,22,24.20
2016,08,24,10,23,24.20
2016,08,24,10,24,24.20
2016,08,24,10,25,24.10
2016,08,24,10,26,24.10
2016,08,24,10,27,24.10
2016,08,24,10,28,24.00
2016,08,24,10,29,24.00
2016,08,24,10,30,24.10
2016,08,24,10,31,24.20
2016,08,24,10,32,24.40
2016,08,24,10,33,24.50
2016,08,24,10,34,24.60
2016,08,24,10,35,24.70
2016,08,24,10,36,24.80
2016,08,24,10,37,24.90
2016,08,24,10,38,25.00
2016,08,24,10,39,25.20
2016,08,24,10,40,25.30
2016,08,24,10,41,25.40
2016,08,24,10,42,25.50
2016,08,24,10,43,25.50
2016,08,24,10,44,25.60
2016,08,24,10,45,25.70
2016,08,24,10,46,25.70
2016,08,24,10,47,25.70
2016,08,24,10,48,25.80
2016,08,24,10,49,25.90
2016,08,24,10,50,26.00
2016,08,24,10,51,26.00
2016,08,24,10,52,26.10
2016,08,24,10,53,26.10
2016,08,24,10,54,26.10
2016,08,24,10,55,26.20
2016,08,24,10,56,26.20
2016,08,24,10,57,26.10
2016,08,24,10,58,26.00
2016,08,24,10,59,25.90
2016,08,24,11,00,25.80
2016,08,24,11,01,25.80
2016,08,24,11,02,25.80
2016,08,24,11,03,25.80
2016,08,24,11,04,25.80
2016,08,24,11,05,25.90
2016,08,24,11,06,26.00
2016,08,24,11,07,26.10
2016,08,24,11,08,26.10
2016,08,24,11,09,26.20
2016,08,24,11,10,26.20
2016,08,24,11,11,26.20
2016,08,24,11,12,26.30
2016,08,24,11,13,26.30
2016,08,24,11,14,26.40
2016,08,24,11,15,26.50
2016,08,24,11,16,26.50
2016,08,24,11,17,26.60
2016,08,24,11,18,26.70
2016,08,24,11,19,26.70
2016,08,24,11,20,26.80
2016,08,24,11,21,26.80
2016,08,24,11,22,26.70
2016,08,24,11,23,26.60
2016,08,24,11,24,26.60
2016,08,24,11,25,26.50
2016,08,24,11,26,26.40
2016,08,24,11,27,26.40
2016,08,24,11,28,26.40
2016,08,24,11,29,26.30
2016,08,24,11,30,26.30
2016,08,24,11,31,26.30
2016,08,24,11,32,26.30
2016,08,24,11,33,26.30
2016,08,24,11,34,26.40
2016,08,24,11,35,26.40
2016,08,24,11,36,26.50
2016,08,24,11,37,26.50
2016,08,24,11,38,26.40
2016,08,24,11,39,26.40
2016,08,24,11,40,26.40
2016,08,24,11,41,26.40
2016,08,24,11,42,26.40
2016,08,24,11,43,26.50
2016,08,24,11,44,26.60
2016,08,24,11,45,26.60
2016,08,24,11,46,26.60
2016,08,24,11,47,26.60
2016,08,24,11,48,26.70
2016,08,24,11,49,26.70
2016,08,24,11,50,26.70
2016,08,24,11,51,26.80
2016,08,24,11,52,26.90
2016,08,24,11,53,26.90
2016,08,24,11,54,27.00
2016,08,24,11,55,27.10
2016,08,24,11,56,27.10
2016,08,24,11,57,27.20
2016,08,24,11,58,27.20
2016,08,24,11,59,27.20
2016,08,24,12,00,27.20
2016,08,24,12,01,27.20
2016,08,24,12,02,27.20
2016,08,24,12,03,27.30
2016,08,24,12,04,27.30
2016,08,24,12,05,27.30
2016,08,24,12,06,27.40
2016,08,24,12,07,27.50
2016,08,24,12,08,27.60
2016,08,24,12,09,27.60
2016,08,24,12,10,27.70
2016,08,24,12,11,27.80
2016,08,24,12,12,27.90
2016,08,24,12,13,28.00
2016,08,24,12,14,28.10
2016,08,24,12,15,28.20
2016,08,24,12,16,28.20
2016,08,24,12,17,28.30
2016,08,24,12,18,28.30
2016,08,24,12,19,28.30
2016,08,24,12,20,28.30
2016,08,24,12,21,28.20
2016,08,24,12,22,28.10
2016,08,24,12,23,28.10
2016,08,24,12,24,28.00
2016,08,24,12,25,28.00
2016,08,24,12,26,28.00
2016,08,24,12,27,28.00
2016,08,24,12,28,28.00
2016,08,24,12,29,28.00
2016,08,24,12,30,28.00
2016,08,24,12,31,28.00
2016,08,24,12,32,28.00
2016,08,24,12,33,28.10
2016,08,24,12,34,28.00
2016,08,24,12,35,28.00
2016,08,24,12,36,27.90
2016,08,24,12,37,27.90
2016,08,24,12,38,27.90
2016,08,24,12,39,27.90
2016,08,24,12,40,27.90
2016,08,24,12,41,27.90
2016,08,24,12,42,27.90
2016,08,24,12,43,27.90
2016,08,24,12,44,27.90
2016,08,24,12,45,28.00
2016,08,24,12,46,28.00
2016,08,24,12,47,28.10
2016,08,24,12,48,28.10
2016,08,24,12,49,28.10
2016,08,24,12,50,28.10
2016,08,24,12,51,28.20
2016,08,24,12,52,28.20
2016,08,24,12,53,28.30
2016,08,24,12,54,28.30
2016,08,24,12,55,28.30
2016,08,24,12,56,28.30
2016,08,24,12,57,28.30
2016,08,24,12,58,28.30
2016,08,24,12,59,28.20
2016,08,24,13,00,28.10
2016,08,24,13,01,28.00
2016,08,24,13,02,27.90
2016,08,24,13,03,27.80
2016,08,24,13,04,27.70
2016,08,24,13,05,27.70
2016,08,24,13,06,27.60
2016,08,24,13,07,27.60
2016,08,24,13,08,27.60
2016,08,24,13,09,27.60
2016,08,24,13,10,27.60
2016,08,24,13,11,27.70
2016,08,24,13,12,27.80
2016,08,24,13,13,27.90
2016,08,24,13,14,28.00
2016,08,24,13,15,28.10
2016,08,24,13,16,28.10
2016,08,24,13,17,28.10
2016,08,24,13,18,28.10
2016,08,24,13,19,28.10
2016,08,24,13,20,28.20
2016,08,24,13,21,28.20
2016,08,24,13,22,28.20
2016,08,24,13,23,28.20
2016,08,24,13,24,28.20
2016,08,24,13,25,28.20
2016,08,24,13,26,28.30
2016,08,24,13,27,28.30
2016,08,24,13,28,28.20
2016,08,24,13,29,28.30
2016,08,24,13,30,28.30
2016,08,24,13,31,28.40
2016,08,24,13,32,28.50
2016,08,24,13,33,28.60
2016,08,24,13,34,28.70
2016,08,24,13,35,28.70
2016,08,24,13,36,28.80
2016,08,24,13,37,28.80
2016,08,24,13,38,28.80
2016,08,24,13,39,28.80
2016,08,24,13,40,28.80
2016,08,24,13,41,28.80
2016,08,24,13,42,28.80
2016,08,24,13,43,28.80
2016,08,24,13,44,28.80
2016,08,24,13,45,28.80
2016,08,24,13,46,28.80
2016,08,24,13,47,28.80
2016,08,24,13,48,28.80
2016,08,24,13,49,28.60
2016,08,24,13,50,28.40
2016,08,24,13,51,28.30
2016,08,24,13,52,28.30
2016,08,24,13,53,28.20
2016,08,24,13,54,28.30
2016,08,24,13,55,28.30
2016,08,24,13,56,28.40
2016,08,24,13,57,28.50
2016,08,24,13,58,28.50
2016,08,24,13,59,28.50
2016,08,24,14,00,28.60
2016,08,24,14,01,28.60
2016,08,24,14,02,28.60
2016,08,24,14,03,28.70
2016,08,24,14,04,28.70
2016,08,24,14,05,28.70
2016,08,24,14,06,28.70
2016,08,24,14,07,28.60
2016,08,24,14,08,28.60
2016,08,24,14,09,28.60
2016,08,24,14,10,28.60
2016,08,24,14,11,28.60
2016,08,24,14,12,28.60
2016,08,24,14,13,28.60
2016,08,24,14,14,28.60
2016,08,24,14,15,28.60
2016,08,24,14,16,28.60
2016,08,24,14,17,28.70
2016,08,24,14,18,28.70
2016,08,24,14,19,28.80
2016,08,24,14,20,28.80
2016,08,24,14,21,28.90
2016,08,24,14,22,28.90
2016,08,24,14,23,29.00
2016,08,24,14,24,29.00
2016,08,24,14,25,29.10
2016,08,24,14,26,29.20
2016,08,24,14,27,29.20
2016,08,24,14,28,29.20
2016,08,24,14,29,29.30
2016,08,24,14,30,29.20
2016,08,24,14,31,29.20
2016,08,24,14,32,29.20
2016,08,24,14,33,29.20
2016,08,24,14,34,29.20
2016,08,24,14,35,29.10
2016,08,24,14,36,29.10
2016,08,24,14,37,29.20
2016,08,24,14,38,29.30
2016,08,24,14,39,29.30
2016,08,24,14,40,29.40
2016,08,24,14,41,29.50
2016,08,24,14,42,29.60
2016,08,24,14,43,29.60
2016,08,24,14,44,29.60
2016,08,24,14,45,29.50
2016,08,24,14,46,29.50
2016,08,24,14,47,29.40
2016,08,24,14,48,29.40
2016,08,24,14,49,29.40
2016,08,24,14,50,29.40
2016,08,24,14,51,29.40
2016,08,24,14,52,29.40
2016,08,24,14,53,29.50
2016,08,24,14,54,29.50
2016,08,24,14,55,29.60
2016,08,24,14,56,29.60
2016,08,24,14,57,29.70
2016,08,24,14,58,29.70
2016,08,24,14,59,29.70
2016,08,24,15,00,29.70
2016,08,24,15,01,29.60
2016,08,24,15,02,29.60
2016,08,24,15,03,29.50
2016,08,24,15,04,29.40
2016,08,24,15,05,29.40
2016,08,24,15,06,29.30
2016,08,24,15,07,29.30
2016,08,24,15,08,29.30
2016,08,24,15,09,29.40
2016,08,24,15,10,29.40
2016,08,24,15,11,29.50
2016,08,24,15,12,29.60
2016,08,24,15,13,29.70
2016,08,24,15,14,29.70
2016,08,24,15,15,29.80
2016,08,24,15,16,29.90
2016,08,24,15,17,29.90
2016,08,24,15,18,29.90
2016,08,24,15,19,29.90
2016,08,24,15,20,29.80
2016,08,24,15,21,29.70
2016,08,24,15,22,29.70
2016,08,24,15,23,29.70
2016,08,24,15,24,29.80
2016,08,24,15,25,29.80
2016,08,24,15,26,29.80
2016,08,24,15,27,29.90
2016,08,24,15,28,29.90
2016,08,24,15,29,30.00
2016,08,24,15,30,30.00
2016,08,24,15,31,30.10
2016,08,24,15,32,30.00
2016,08,24,15,33,30.00
2016,08,24,15,34,30.10
2016,08,24,15,35,30.10
2016,08,24,15,36,30.10
2016,08,24,15,37,30.10
2016,08,24,15,38,30.10
2016,08,24,15,39,30.10
2016,08,24,15,40,30.10
2016,08,24,15,41,30.10
2016,08,24,15,42,30.00
2016,08,24,15,43,30.00
2016,08,24,15,44,30.00
2016,08,24,15,45,30.00
2016,08,24,15,46,30.10
2016,08,24,15,47,30.10
2016,08,24,15,48,30.20
2016,08,24,15,49,30.20
2016,08,24,15,50,30.30
2016,08,24,15,51,30.30
2016,08,24,15,52,30.30
2016,08,24,15,53,30.30
2016,08,24,15,54,30.30
2016,08,24,15,55,30.30
2016,08,24,15,56,30.30
2016,08,24,15,57,30.40
2016,08,24,15,58,30.40
2016,08,24,15,59,30.50
2016,08,24,16,00,30.50
2016,08,24,16,01,30.40
2016,08,24,16,02,30.40
2016,08,24,16,03,30.30
2016,08,24,16,04,30.30
2016,08,24,16,05,30.20
2016,08,24,16,06,30.20
2016,08,24,16,07,30.30
2016,08,24,16,08,30.30
2016,08,24,16,09,30.30
2016,08,24,16,10,30.30
2016,08,24,16,11,30.40
2016,08,24,16,12,30.40
2016,08,24,16,13,30.50
2016,08,24,16,14,30.50
2016,08,24,16,15,30.60
2016,08,24,16,16,30.60
2016,08,24,16,17,30.50
2016,08,24,16,18,30.50
2016,08,24,16,19,30.50
2016,08,24,16,20,30.50
2016,08,24,16,21,30.50
2016,08,24,16,22,30.50
2016,08,24,16,23,30.50
2016,08,24,16,24,30.60
2016,08,24,16,25,30.60
2016,08,24,16,26,30.60
2016,08,24,16,27,30.60
2016,08,24,16,28,30.60
2016,08,24,16,29,30.60
2016,08,24,16,30,30.60
2016,08,24,16,31,30.50
2016,08,24,16,32,30.50
2016,08,24,16,33,30.50
2016,08,24,16,34,30.50
2016,08,24,16,35,30.50
2016,08,24,16,36,30.50
2016,08,24,16,37,30.50
2016,08,24,16,38,30.60
2016,08,24,16,39,30.60
2016,08,24,16,40,30.70
2016,08,24,16,41,30.70
2016,08,24,16,42,30.70
2016,08,24,16,43,30.70
2016,08,24,16,44,30.70
2016,08,24,16,45,30.70
2016,08,24,16,46,30.70
2016,08,24,16,47,30.70
2016,08,24,16,48,30.70
2016,08,24,16,49,30.80
2016,08,24,16,50,30.80
2016,08,24,16,51,30.90
2016,08,24,16,52,31.00
2016,08,24,16,53,31.00
2016,08,24,16,54,31.10
2016,08,24,16,55,31.20
2016,08,24,16,56,31.30
2016,08,24,16,57,31.30
2016,08,24,16,58,31.30
2016,08,24,16,59,31.30
2016,08,24,17,00,31.40
2016,08,24,17,01,31.40
2016,08,24,17,02,31.40
2016,08,24,17,03,31.30
2016,08,24,17,04,31.30
2016,08,24,17,05,31.30
2016,08,24,17,06,31.20
2016,08,24,17,07,31.20
2016,08,24,17,08,31.20
2016,08,24,17,09,31.30
2016,08,24,17,10,31.30
2016,08,24,17,11,31.30
2016,08,24,17,12,31.30
2016,08,24,17,13,31.30
2016,08,24,17,14,31.30
2016,08,24,17,15,31.30
2016,08,24,17,16,31.30
2016,08,24,17,17,31.30
2016,08,24,17,18,31.40
2016,08,24,17,19,31.40